Elizabethton, TN

10:34 AM EDT on August 31, 2016 (GMT -0400)
Elizabethton

Weather History for K0A9 - April, 2014

Change the Weather History Date:

Friday, April 11, 2014

  Actual Average (KTRI) Record (KTRI)
Temperature  
Mean Temperature 56 °F 54 °F  
Max Temperature 71 °F 67 °F 86 °F (2001)
Min Temperature 41 °F 41 °F 25 °F (1960)
Degree Days  
Heating Degree Days 9 11  
Month to date heating degree days 139  
Since 1 July heating degree days 4089  
Cooling Degree Days 0 0  
Month to date cooling degree days 0  
Year to date cooling degree days 1  
Growing Degree Days 6 (Base 50)    
Moisture  
Dew Point 40 °F    
Average Humidity 60    
Maximum Humidity 87    
Minimum Humidity 31    
Precipitation  
Precipitation 0.00 in 0.11 in 0.90 in (1962)
Month to date precipitation 1.20  
Year to date precipitation 11.46  
Snow  
Snow 0.00 in 0.00 in - ()
Month to date snowfall 0.5  
Since 1 July snowfall 12.7  
Snow Depth -    
Sea Level Pressure  
Sea Level Pressure 30.15 in    
Wind  
Wind Speed 1 mph (West)    
Max Wind Speed 16 mph    
Max Gust Speed 17 mph    
Visibility 10 miles    
Events      
T = Trace of Precipitation, MM = Missing Value Source: NWS Daily Summary

Daily Weather History Graph

Daily Weather History Graph

Search for Another Location

Airport or City:

Trip Planner

Search our weather history database for the weather conditions in past years. The results will help you decide how hot, cold, wet, or windy it might be!

Date:

Astronomy

Apr. 11, 2014 Rise Set
Actual Time 7:00 AM EDT 7:59 PM EDT
Civil Twilight 6:34 AM EDT 8:25 PM EDT
Nautical Twilight 6:03 AM EDT 8:57 PM EDT
Astronomical Twilight 5:30 AM EDT 9:29 PM EDT
Moon 4:44 PM EDT (4/11) 4:49 AM EDT (4/11)
Length of Visible Light 13h 51m
Length of Day
12h 58m
Waxing Gibbous, 87% of the Moon is Illuminated
Apr 11
Waxing Gibbous
Apr 15
Full
Apr 22
Last Quarter
Apr 29
New
May 6
First Quarter

Hourly Weather History & Observations

Time (EDT) Temp. Dew Point Humidity Pressure Visibility Wind Dir Wind Speed Gust Speed Precip Events Conditions
12:15 AM 44.6 °F 39.2 °F 81% 30.17 in 10.0 mi Calm Calm - N/A   Clear
12:35 AM 42.8 °F 37.4 °F 81% 30.17 in 10.0 mi Calm Calm - N/A   Clear
12:55 AM 44.6 °F 37.4 °F 76% 30.16 in 10.0 mi Calm Calm - N/A   Clear
1:15 AM 42.8 °F 37.4 °F 81% 30.16 in 10.0 mi Calm Calm - N/A   Clear
1:35 AM 42.8 °F 37.4 °F 81% 30.16 in 10.0 mi Calm Calm - N/A   Clear
1:55 AM 41.0 °F 37.4 °F 87% 30.15 in 10.0 mi Calm Calm - N/A   Clear
2:15 AM 41.0 °F 37.4 °F 87% 30.15 in 10.0 mi Calm Calm - N/A   Clear
2:35 AM 42.8 °F 37.4 °F 81% 30.14 in 10.0 mi Calm Calm - N/A   Clear
2:55 AM 41.0 °F 37.4 °F 87% 30.14 in 10.0 mi Calm Calm - N/A   Clear
3:15 AM 42.8 °F 37.4 °F 81% 30.14 in 10.0 mi Calm Calm - N/A   Clear
3:35 AM 42.8 °F 37.4 °F 81% 30.14 in 10.0 mi Calm Calm - N/A   Clear
3:55 AM 42.8 °F 37.4 °F 81% 30.15 in 10.0 mi Calm Calm - N/A   Clear
4:15 AM 42.8 °F 37.4 °F 81% 30.15 in 10.0 mi Calm Calm - N/A   Clear
4:35 AM 44.6 °F 37.4 °F 76% 30.16 in 10.0 mi Calm Calm - N/A   Clear
4:55 AM 44.6 °F 37.4 °F 76% 30.16 in 10.0 mi Calm Calm - N/A   Clear
5:15 AM 42.8 °F 37.4 °F 81% 30.17 in 10.0 mi Calm Calm - N/A   Clear
5:35 AM 42.8 °F 37.4 °F 81% 30.17 in 10.0 mi Calm Calm - N/A   Clear
5:55 AM 42.8 °F 37.4 °F 81% 30.18 in 10.0 mi Calm Calm - N/A   Clear
6:15 AM 42.8 °F 37.4 °F 81% 30.18 in 10.0 mi Calm Calm - N/A   Clear
6:35 AM 42.8 °F 37.4 °F 81% 30.19 in 10.0 mi Calm Calm - N/A   Clear
6:55 AM 41.0 °F 37.4 °F 87% 30.19 in 10.0 mi Calm Calm - N/A   Clear
7:15 AM 41.0 °F 37.4 °F 87% 30.20 in 10.0 mi Calm Calm - N/A   Clear
7:35 AM 42.8 °F 37.4 °F 81% 30.20 in 10.0 mi Calm Calm - N/A   Clear
7:55 AM 42.8 °F 37.4 °F 81% 30.21 in 10.0 mi Calm Calm - N/A   Clear
8:15 AM 44.6 °F 37.4 °F 76% 30.22 in 10.0 mi Calm Calm - N/A   Clear
8:35 AM 46.4 °F 39.2 °F 76% 30.22 in 10.0 mi Calm Calm - N/A   Clear
8:55 AM 48.2 °F 39.2 °F 71% 30.21 in 10.0 mi Calm Calm - N/A   Clear
9:15 AM 48.2 °F 39.2 °F 71% 30.22 in 10.0 mi Calm Calm - N/A   Clear
9:35 AM 51.8 °F 39.2 °F 62% 30.21 in 10.0 mi Calm Calm - N/A   Clear
9:55 AM 53.6 °F 39.2 °F 58% 30.21 in 10.0 mi Calm Calm - N/A   Clear
10:15 AM 57.2 °F 39.2 °F 51% 30.21 in 10.0 mi Calm Calm - N/A   Clear
10:35 AM 60.8 °F 42.8 °F 52% 30.21 in 10.0 mi Calm Calm - N/A   Clear
10:55 AM 64.4 °F 39.2 °F 40% 30.20 in 10.0 mi Variable 4.6 mph - N/A   Clear
11:15 AM 66.2 °F 41.0 °F 40% 30.20 in 10.0 mi SW 8.1 mph - N/A   Clear
11:35 AM 66.2 °F 41.0 °F 40% 30.19 in 10.0 mi West 10.4 mph - N/A   Clear
11:55 AM 66.2 °F 41.0 °F 40% 30.19 in 10.0 mi Calm Calm - N/A   Clear
12:15 PM 66.2 °F 39.2 °F 37% 30.18 in 10.0 mi Calm Calm - N/A   Clear
12:35 PM 68.0 °F 39.2 °F 35% 30.16 in 10.0 mi WSW 16.1 mph - N/A   Clear
12:55 PM 66.2 °F 41.0 °F 40% 30.16 in 10.0 mi Calm Calm - N/A   Clear
1:15 PM 66.2 °F 41.0 °F 40% 30.15 in 10.0 mi WNW 11.5 mph - N/A   Clear
1:35 PM 66.2 °F 42.8 °F 43% 30.14 in 10.0 mi NW 5.8 mph 12.7 mph N/A   Clear
1:55 PM 69.8 °F 42.8 °F 38% 30.13 in 10.0 mi Calm Calm - N/A   Clear
2:15 PM 69.8 °F 41.0 °F 35% 30.12 in 10.0 mi West 9.2 mph - N/A   Clear
2:55 PM 71.6 °F 42.8 °F 35% 30.11 in 10.0 mi West 12.7 mph 16.1 mph N/A   Clear
3:15 PM 69.8 °F 39.2 °F 33% 30.11 in 10.0 mi West 9.2 mph 17.3 mph N/A   Clear
3:35 PM 71.6 °F 41.0 °F 33% 30.10 in 10.0 mi Calm Calm - N/A   Clear
3:55 PM 71.6 °F 39.2 °F 31% 30.09 in 10.0 mi Calm Calm - N/A   Clear
4:15 PM 71.6 °F 39.2 °F 31% 30.08 in 10.0 mi WNW 11.5 mph - N/A   Clear
4:35 PM 71.6 °F 39.2 °F 31% 30.08 in 10.0 mi Calm Calm - N/A   Clear
4:55 PM 71.6 °F 41.0 °F 33% 30.08 in 10.0 mi Calm Calm - N/A   Clear
5:15 PM 71.6 °F 39.2 °F 31% 30.07 in 10.0 mi Calm Calm - N/A   Clear
5:35 PM 71.6 °F 41.0 °F 33% 30.07 in 10.0 mi Calm Calm - N/A   Clear
5:55 PM 71.6 °F 41.0 °F 33% 30.07 in 10.0 mi Calm Calm - N/A   Clear
6:15 PM 69.8 °F 39.2 °F 33% 30.07 in 10.0 mi Calm Calm - N/A   Clear
6:35 PM 71.6 °F 42.8 °F 35% 30.06 in 10.0 mi Calm Calm - N/A   Clear
6:55 PM 69.8 °F 41.0 °F 35% 30.06 in 10.0 mi Calm Calm - N/A   Clear
7:15 PM 69.8 °F 41.0 °F 35% 30.07 in 10.0 mi Calm Calm - N/A   Clear
7:35 PM 66.2 °F 41.0 °F 40% 30.07 in 10.0 mi Calm Calm - N/A   Clear
7:55 PM 62.6 °F 42.8 °F 48% 30.08 in 10.0 mi Calm Calm - N/A   Clear
8:15 PM 59.0 °F 44.6 °F 59% 30.09 in 10.0 mi Calm Calm - N/A   Partly Cloudy
8:35 PM 57.2 °F 44.6 °F 63% 30.10 in 10.0 mi Calm Calm - N/A   Scattered Clouds
8:55 PM 57.2 °F 44.6 °F 63% 30.11 in 10.0 mi Calm Calm - N/A   Mostly Cloudy
9:15 PM 57.2 °F 46.4 °F 67% 30.12 in 10.0 mi Calm Calm - N/A   Mostly Cloudy
9:35 PM 57.2 °F 46.4 °F 67% 30.12 in 10.0 mi Calm Calm - N/A   Mostly Cloudy
9:55 PM 57.2 °F 46.4 °F 67% 30.13 in 10.0 mi Calm Calm - N/A   Mostly Cloudy
10:15 PM 55.4 °F 44.6 °F 67% 30.13 in 10.0 mi Calm Calm - N/A   Partly Cloudy
10:35 PM 51.8 °F 44.6 °F 76% 30.14 in 10.0 mi Calm Calm - N/A   Clear
10:55 PM 51.8 °F 42.8 °F 71% 30.15 in 10.0 mi Calm Calm - N/A   Clear
11:15 PM 50.0 °F 41.0 °F 71% 30.16 in 10.0 mi Calm Calm - N/A   Scattered Clouds
11:35 PM 50.0 °F 42.8 °F 76% 30.16 in 10.0 mi Calm Calm - N/A   Partly Cloudy
11:55 PM 48.2 °F 42.8 °F 82% 30.17 in 10.0 mi Calm Calm - N/A   Mostly Cloudy